ONEWEB-0189, 48217

Orbit data source: Space-Track

ONEWEB-0189, 48217 is a payload satellite owned by One Web (NAA) (UK) in LEO that was launched on Sun, 25 Apr 2021 UTC via a SOYUZ-2-1B launch vehicle from the Vostochny Cosmodrome (VOSTO). Payload-class satellites include a variety of spacecraft equipped with specific instruments for various scientific and technological missions. These include communications satellites like Starlink; space stations such as the ISS; scientific satellites like the Hubble; Earth observation satellites from companies like Planet Labs, Umbra, and HawkEye 360; GPS; miniature CubeSats for education and research; and military/defense satellites.

Loading next visibility...
Identifier
48217, 2021-031H
Orbit
LEO
Country
Flag of UKUK
Related business
Manufacturer
One Web
Mission
Operational Commercial Communications
Bus & Motor
ARROW, Unknown motor
Mass
148 kg wet, ~140 kg dry
Launch date (UTC)
2021-04-25 (5 years ago)
Launch vehicle
SOYUZ-2-1B
Launch site
Vostochny Cosmodrome (VOSTO)
Object type
Payload
Rocket body
Debris
Shape & HBR
Trap Box + 2 Pan, 6.7 m
Radar Cross Section
3.464 m², Large (>1 m²)

Expand to show TLE details & history
Last TLE update: 12 hours ago

TLE from 12 hours ago
0 ONEWEB-0189
1 48217U 21031H   26094.63334045  .00000136  00000-0  33163-3 0  9997
2 48217  87.8942 304.3779 0001830  77.0279 283.1055 13.14505583238562
Epoch: 2026-04-04T15:12Z
TLE epoch observation values (Epoch: 2026-04-04T15:12:00.614Z)
Latitude
-0.00004°
Longitude
-116.57497°
Altitude
1,208.359 km
Speed
7.25 km/s
True Right ascension
20h 17m 30s
True Declination
0° 00' 00"
Sunlit
Object was in daylight at epoch
Visualization orbit readout
Latitude
Unknown
Longitude
Unknown
Altitude
Unknown
Speed
Unknown
Apparent Right ascension
Unknown
Apparent Declination
Unknown
Sunlit
N/A
Visualization observer readout
Local Sidereal Time
09:24:50
Azimuth
Unknown
Elevation
Unknown
Doppler factor
Unknown
Orbital elements
Apogee altitude
1,204.281 km
Perigee altitude
1,201.506 km
Semi-major axis
7,581.03 km
Eccentricity
0.00018
Inclination
87.8942°
RAAN
304.3779°
Arg. of periapsis
77.0279°
True anomaly
283.08507°
Mean anomaly
283.1055°
Eccentric anomaly
283.09529°
Mean motion
3.28814 °/min
Orbital period
109.48 mins
BSTAR
0.00033163
Loading maneuver chart data...
Computing Atmospheric mass density...
Loading historical data...
Loading historical data...
Loading historical data...
Loading historical data...
Loading historical data...
Loading historical data...
Loading historical data...

Documentation

Showing up to 5 results
|